GW2412 Weather Reports


time (UTC)temp
C
wind
direction
speed
KPH
gust
KPH
rain 1hr
cm
rain 24hr
cm
rain mn
cm
humidity
%
barometer
mb
20260503014017 14 101 4.8 9.7 0.00 0.00 0.00 1 1016.3
20260503013517 15 101 4.8 11.3 0.00 0.00 0.00 1 1016.1
20260503013058 15 101 8.0 11.3 0.00 0.00 0.00 1 1016.2
20260503012521 15 101 8.0 11.3 0.00 0.00 0.00 1 1016.2
20260503012016 15 101 4.8 11.3 0.00 0.00 0.00 1 1016.5
20260503011820 15 101 4.8 11.3 0.00 0.00 0.00 1 1016.4
20260503011020 15 101 4.8 11.3 0.00 0.00 0.00 1 1016.4
20260503010514 15 105 6.4 11.3 0.00 0.00 0.00 1 1016.4
20260503010050 16 94 4.8 12.9 0.00 0.00 0.00 1 1016.5
20260503005516 16 95 8.0 14.5 0.00 0.00 0.00 1 1016.5
20260503005018 16 98 9.7 14.5 0.00 0.00 0.00 1 1016.5
20260503004550 15 101 11.3 14.5 0.00 0.00 0.00 1 1016.4
20260503004017 15 117 8.0 12.9 0.00 0.00 0.00 1 1016.7
20260503003515 15 98 9.7 12.9 0.00 0.00 0.00 1 1016.8
20260503003050 15 110 8.0 14.5 0.00 0.00 0.00 1 1016.8
20260503002518 15 94 11.3 14.5 0.00 0.00 0.00 1 1016.8
20260503002018 15 105 9.7 12.9 0.00 0.00 0.00 1 1016.7
20260503001543 15 105 6.4 12.9 0.00 0.00 0.00 1 1016.8
20260503001017 15 97 8.0 11.3 0.00 0.00 0.00 1 1017.1
20260503000514 16 97 6.4 11.3 0.00 0.00 0.00 1 1017.2
20260503000058 16 246 0.0 8.0 0.00 0.00 0.00 1 1017.2
20260502235517 16 246 1.6 14.5 0.00 0.00 0.00 1 1017.1
20260502235010 16 234 6.4 14.5 0.00 0.00 0.00 1 1017.2
20260502234554 16 225 6.4 12.9 0.00 0.00 0.00 1 1017.1
20260502234017 16 244 3.2 11.3 0.00 0.00 0.00 1 1017.2
20260502233516 16 130 3.2 12.9 0.00 0.00 0.00 1 1017.1
20260502233050 16 146 6.4 12.9 0.00 0.00 0.00 1 1017.2
20260502232514 17 228 4.8 14.5 0.00 0.00 0.00 1 1017.2
20260502232016 17 51 0.0 19.3 0.00 0.00 0.00 1 1017.1
20260502231551 16 313 4.8 19.3 0.00 0.00 0.00 1 1017.1
20260502231016 17 29 6.4 14.5 0.00 0.00 0.00 1 1017.4
20260502230516 17 311 1.6 20.9 0.00 0.00 0.00 1 1017.4
20260502230450 17 330 12.9 20.9 0.00 0.00 0.00 1 1017.5
20260502225512 17 165 3.2 17.7 0.00 0.00 0.00 1 1017.5
20260502225016 17 199 1.6 17.7 0.00 0.00 0.00 1 1017.6
20260502224557 17 279 6.4 12.9 0.00 0.00 0.00 1 1017.5
20260502224016 16 153 1.6 11.3 0.00 0.00 0.00 1 1017.5
20260502223515 17 196 1.6 9.7 0.00 0.00 0.00 1 1017.6
20260502223052 16 225 4.8 20.9 0.00 0.00 0.00 1 1017.8
20260502222519 16 275 8.0 20.9 0.00 0.00 0.00 1 1017.8
20260502222021 16 257 9.7 19.3 0.00 0.00 0.00 1 1018.0
20260502221549 16 232 12.9 24.1 0.00 0.00 0.00 1 1018.0
20260502221015 16 291 17.7 24.1 0.00 0.00 0.00 1 1018.1
20260502220517 16 322 6.4 20.9 0.00 0.00 0.00 1 1018.1
20260502220150 16 355 11.3 24.1 0.00 0.00 0.00 1 1018.1
20260502215515 16 355 3.2 12.9 0.00 0.00 0.00 1 1018.4
20260502215015 16 109 4.8 11.3 0.00 0.00 0.00 1 1018.6
20260502214552 16 246 1.6 19.3 0.00 0.00 0.00 1 1018.5
20260502214021 16 355 11.3 19.3 0.00 0.00 0.00 1 1018.6
20260502213518 16 16 12.9 19.3 0.00 0.00 0.00 1 1018.7
20260502213107 16 304 4.8 20.9 0.00 0.00 0.00 1 1018.7
20260502212511 15 329 16.1 20.9 0.00 0.00 0.00 1 1018.7
20260502212046 16 342 6.4 17.7 0.00 0.00 0.00 1 1018.9
20260502211557 16 309 4.8 19.3 0.00 0.00 0.00 1 1019.0
20260502211015 16 266 11.3 19.3 0.00 0.00 0.00 1 1019.1
20260502210534 15 257 14.5 19.3 0.00 0.00 0.00 1 1019.0
20260502210057 15 270 1.6 12.9 0.00 0.00 0.00 1 1019.1
20260502205515 16 269 4.8 16.1 0.00 0.00 0.00 1 1019.2
20260502205016 16 285 6.4 16.1 0.00 0.00 0.00 1 1019.3
20260502204601 16 298 6.4 16.1 0.00 0.00 0.00 1 1019.2
20260502204007 15 10 6.4 14.5 0.00 0.00 0.00 1 1019.0
20260502203521 15 32 3.2 14.5 0.00 0.00 0.00 1 1019.1
20260502203101 15 291 4.8 14.5 0.00 0.00 0.00 1 1019.3
20260502202517 15 286 6.4 17.7 0.00 0.00 0.00 1 1019.3
20260502202015 15 344 11.3 17.7 0.00 0.00 0.00 1 1019.5
20260502201545 15 274 8.0 16.1 0.00 0.00 0.00 1 1019.5
20260502201014 15 303 6.4 19.3 0.00 0.00 0.00 1 1019.5
20260502200515 15 316 4.8 27.4 0.00 0.00 0.00 1 1019.6
20260502200048 15 286 8.0 20.9 0.00 0.00 0.00 1 1019.6
20260502195514 15 296 8.0 17.7 0.00 0.00 0.00 1 1019.5
20260502195015 15 318 4.8 20.9 0.00 0.00 0.00 1 1019.5
20260502194553 15 355 12.9 22.5 0.00 0.00 0.00 1 1019.6
20260502194028 15 292 16.1 22.5 0.00 0.00 0.00 1 1019.6
20260502193515 15 17 3.2 22.5 0.00 0.00 0.00 1 1019.7
20260502193039 15 54 9.7 24.1 0.00 0.00 0.00 1 1019.6
20260502192519 15 5 12.9 20.9 0.00 0.00 0.00 1 1019.7
20260502192016 14 311 12.9 25.7 0.00 0.00 0.00 1 1019.8
20260502191542 14 277 16.1 25.7 0.00 0.00 0.00 1 1019.7
20260502191013 14 301 17.7 24.1 0.00 0.00 0.00 1 1019.9
20260502190515 14 324 17.7 24.1 0.00 0.00 0.00 1 1019.7
20260502190026 13 345 17.7 25.7 0.00 0.00 0.00 1 1019.9
20260502185518 13 346 17.7 25.7 0.00 0.00 0.00 1 1020.0
20260502185017 14 5 14.5 27.4 0.00 0.00 0.00 1 1020.0
20260502184606 13 350 20.9 27.4 0.00 0.00 0.00 1 1019.8
20260502184022 13 332 20.9 27.4 0.00 0.00 0.00 1 1019.9
20260502183519 13 331 20.9 27.4 0.00 0.00 0.00 1 1019.8
20260502183108 13 350 17.7 29.0 0.00 0.00 0.00 1 1019.9
20260502182524 14 341 19.3 25.7 0.00 0.00 0.00 1 1019.9
20260502182024 14 332 17.7 27.4 0.00 0.00 0.00 1 1020.0
20260502181608 13 292 17.7 27.4 0.00 0.00 0.00 1 1020.1
20260502181019 14 325 19.3 29.0 0.00 0.00 0.00 1 1020.0
20260502180522 13 338 20.9 29.0 0.00 0.00 0.00 1 1020.1
20260502170518 14 331 22.5 35.4 0.00 0.00 0.00 1 1020.2
20260502164017 13 327 29.0 35.4 0.00 0.00 0.00 1 1019.9
20260502163516 13 333 27.4 37.0 0.00 0.00 0.00 1 1019.9
20260502163106 13 331 25.7 37.0 0.00 0.00 0.00 1 1019.9
20260502162519 13 344 27.4 35.4 0.00 0.00 0.00 1 1019.9
20260502162020 13 317 25.7 38.6 0.00 0.00 0.00 1 1019.9
20260502161551 13 335 29.0 38.6 0.00 0.00 0.00 1 1019.9
20260502161027 13 339 27.4 38.6 0.00 0.00 0.00 1 1019.7
20260502160518 13 320 30.6 38.6 0.00 0.00 0.00 1 1019.5
20260502152017 13 348 32.2 43.5 0.00 0.00 0.00 1 1019.5
20260502151539 13 338 30.6 43.5 0.00 0.00 0.00 1 1019.5
20260502151015 13 345 29.0 43.5 0.00 0.00 0.00 1 1019.8
20260502150517 13 355 32.2 43.5 0.00 0.00 0.00 1 1019.5
20260502150311 13 336 27.4 40.2 0.00 0.00 0.00 1 1019.6
20260502130519 11 59 16.1 27.4 0.00 0.00 0.00 1 1019.5
20260502123516 10 37 20.9 27.4 0.00 0.00 0.00 1 1018.9
20260502123045 10 31 19.3 32.2 0.00 0.00 0.00 1 1018.9
20260502122515 10 46 22.5 35.4 0.00 0.00 0.00 1 1018.7
20260502122016 10 39 25.7 35.4 0.00 0.00 0.00 1 1018.6
20260502121551 10 32 27.4 33.8 0.00 0.00 0.00 1 1018.8
20260502121017 10 31 24.1 32.2 0.00 0.00 0.00 1 1018.6
20260502120517 10 32 24.1 38.6 0.00 0.00 0.00 1 1018.6
20260502115519 10 43 27.4 40.2 0.00 0.00 0.00 1 1018.4
20260502115017 10 36 29.0 40.2 0.00 0.00 0.00 1 1018.1
20260502114554 10 51 27.4 40.2 0.00 0.00 0.00 1 1018.4
20260502114017 10 44 30.6 40.2 0.00 0.00 0.00 1 1018.3
20260502113517 10 54 30.6 40.2 0.00 0.00 0.00 1 1018.2
20260502113056 10 50 30.6 43.5 0.00 0.00 0.00 1 1018.1
20260502112514 10 64 29.0 46.7 0.00 0.00 0.00 1 1018.1
20260502112016 10 56 32.2 46.7 0.00 0.00 0.00 1 1018.0
20260502111554 10 55 33.8 46.7 0.00 0.00 0.00 1 1017.8
20260502111056 10 47 35.4 46.7 0.00 0.00 0.00 1 1017.9
20260502110515 10 45 35.4 45.1 0.00 0.00 0.00 1 1017.6
20260502110105 10 46 32.2 45.1 0.00 0.00 0.00 1 1017.7
20260502105529 10 40 33.8 45.1 0.00 0.00 0.00 1 1017.4
20260502105015 10 48 32.2 45.1 0.00 0.00 0.00 1 1017.6
20260502104553 10 45 32.2 45.1 0.00 0.00 0.00 1 1017.4
20260502104029 10 36 32.2 45.1 0.00 0.00 0.00 1 1017.4
20260502103518 10 55 30.6 41.8 0.00 0.00 0.00 1 1017.4
20260502103057 10 43 29.0 38.6 0.00 0.00 0.00 1 1017.3
20260502102517 10 35 30.6 38.6 0.00 0.00 0.00 1 1017.4
20260502102019 10 58 29.0 40.2 0.00 0.00 0.00 1 1017.3
20260502101819 10 56 25.7 40.2 0.00 0.00 0.00 1 1017.2
20260502101019 11 42 27.4 35.4 0.00 0.00 0.00 1 1017.1
20260502100518 11 57 24.1 38.6 0.00 0.00 0.00 1 1017.2
20260502091014 10 339 8.0 17.7 0.00 0.00 0.00 1 1016.4
20260502090513 10 336 12.9 19.3 0.00 0.00 0.00 1 1016.3
20260502071018 8 327 8.0 14.5 0.00 0.00 0.00 1 1016.4
20260502070527 8 338 6.4 16.1 0.00 0.00 0.00 1 1016.5
20260502070057 9 326 6.4 14.5 0.00 0.00 0.00 1 1016.4
20260502065513 10 338 6.4 16.1 0.00 0.00 0.00 1 1016.5
20260502065016 9 324 11.3 16.1 0.00 0.00 0.00 1 1016.2
20260502064545 8 336 4.8 16.1 0.00 0.00 0.00 1 1016.2
20260502064013 8 338 8.0 16.1 0.00 0.00 0.00 1 1016.3
20260502063517 7 344 9.7 16.1 0.00 0.00 0.00 1 1016.3
20260502063045 7 344 6.4 12.9 0.00 0.00 0.00 1 1016.2
20260502062515 7 355 6.4 9.7 0.00 0.00 0.00 1 1016.2
20260502062017 7 355 8.0 12.9 0.00 0.00 0.00 1 1016.3
20260502061543 7 360 8.0 12.9 0.00 0.00 0.00 1 1016.2
20260502061014 7 360 8.0 12.9 0.00 0.00 0.00 1 1016.4
20260502060513 7 346 6.4 14.5 0.00 0.00 0.00 1 1016.3
20260502060040 7 360 11.3 16.1 0.00 0.00 0.00 1 1016.3
20260502055514 7 344 12.9 16.1 0.00 0.00 0.00 1 1016.3
20260502055014 8 325 11.3 17.7 0.00 0.00 0.00 1 1016.2
20260502054540 7 336 14.5 17.7 0.00 0.00 0.00 1 1016.3
20260502054013 7 317 14.5 17.7 0.00 0.00 0.00 1 1016.3
20260502053515 7 314 14.5 19.3 0.00 0.00 0.00 1 1016.5
20260502053038 8 336 16.1 19.3 0.00 0.00 0.00 1 1016.4
20260502052517 8 337 16.1 17.7 0.00 0.00 0.00 1 1016.3
20260502052028 8 333 16.1 17.7 0.00 0.00 0.00 1 1016.3
20260502051546 8 335 16.1 17.7 0.00 0.00 0.00 1 1016.4
20260502051007 9 327 14.5 19.3 0.00 0.00 0.00 1 1016.4
20260502050541 10 342 16.1 20.9 0.00 0.00 0.00 1 1016.3
20260502050053 10 344 17.7 20.9 0.00 0.00 0.00 1 1016.3
20260502045518 10 348 16.1 19.3 0.00 0.00 0.00 1 1016.2
20260502045019 10 340 14.5 16.1 0.00 0.00 0.00 1 1016.2
20260502044552 10 346 12.9 14.5 0.00 0.00 0.00 1 1016.3
20260502044016 12 319 11.3 16.1 0.00 0.00 0.00 1 1016.1
20260502043518 11 295 9.7 16.1 0.00 0.00 0.00 1 1016.1
20260502043059 11 307 12.9 16.1 0.00 0.00 0.00 1 1016.2
20260502042519 11 313 11.3 14.5 0.00 0.00 0.00 1 1016.1
20260502042021 11 308 12.9 16.1 0.00 0.00 0.00 1 1016.1
20260502041550 11 308 11.3 16.1 0.00 0.00 0.00 1 1016.1
20260502041016 10 304 9.7 14.5 0.00 0.00 0.00 1 1016.2
20260502040558 10 295 9.7 14.5 0.00 0.00 0.00 1 1016.2
20260502040048 10 288 11.3 14.5 0.00 0.00 0.00 1 1016.3
20260502035514 11 315 3.2 6.4 0.00 0.00 0.00 1 1016.1
20260502035013 11 315 0.0 6.4 0.00 0.00 0.00 1 1015.9
20260502034547 11 345 3.2 8.0 0.00 0.00 0.00 1 1016.0
20260502034019 12 9 6.4 8.0 0.00 0.00 0.00 1 1015.9
20260502033515 12 277 6.4 14.5 0.00 0.00 0.00 1 1015.9
20260502033054 12 296 8.0 14.5 0.00 0.00 0.00 1 1015.8
20260502032516 11 277 8.0 11.3 0.00 0.00 0.00 1 1015.8
20260502032015 11 282 8.0 14.5 0.00 0.00 0.00 1 1015.6
20260502031551 11 250 11.3 14.5 0.00 0.00 0.00 1 1015.7
20260502031016 12 292 6.4 11.3 0.00 0.00 0.00 1 1015.6
20260502030514 12 283 6.4 11.3 0.00 0.00 0.00 1 1015.5
20260502030053 12 260 6.4 11.3 0.00 0.00 0.00 1 1015.4
20260502025517 13 285 8.0 12.9 0.00 0.00 0.00 1 1015.2
20260502025016 13 279 11.3 12.9 0.00 0.00 0.00 1 1015.2
20260502024543 13 275 9.7 14.5 0.00 0.00 0.00 1 1015.3
20260502024016 14 270 9.7 14.5 0.00 0.00 0.00 1 1015.3
20260502023523 15 275 11.3 14.5 0.00 0.00 0.00 1 1015.2
20260502023109 15 263 9.7 12.9 0.00 0.00 0.00 1 1015.3
20260502022519 15 263 8.0 12.9 0.00 0.00 0.00 1 1015.2
20260502022019 16 263 9.7 12.9 0.00 0.00 0.00 1 1015.2
20260502021619 16 250 9.7 14.5 0.00 0.00 0.00 1 1015.3
20260502021020 17 247 11.3 14.5 0.00 0.00 0.00 1 1015.3
20260502020519 17 263 11.3 17.7 0.00 0.00 0.00 1 1015.2
20260502020108 17 252 12.9 17.7 0.00 0.00 0.00 1 1015.2
20260502015522 18 254 14.5 17.7 0.00 0.00 0.00 1 1015.2
20260502015021 18 247 14.5 17.7 0.00 0.00 0.00 1 1015.1
20260502014616 18 250 12.9 22.5 0.00 0.00 0.00 1 1015.0